"Timestamp","TZ","WindDir_Mean (deg)","WindSpd_Mean (km/h)","WindSpd_Min (km/h)","WindSpd_Max (km/h)","Temp_Mean (deg)","RH_Mean (%)","MSLP_Mean (hPa)","Rain_Acc (mm)","Rain_Intensity (mm/h)","Hail_Acc (hits/cm2)","Hail_Intensity (hits/cm2hr)","Solar_Mean (W/m2)"
2021/04/21 00:00:00.010,n,21,4.68,3.24,5.4,19.5,70.6,1015.52,0,0,0,0,0.031319
2021/04/21 00:01:00.000,n,18,5.04,3.96,6.12,19.5,70.6,1015.52,0,0,0,0,0.028725
2021/04/21 00:02:00.000,n,356,5.4,4.32,6.12,19.5,70.6,1015.52,0,0,0,0,0.029602
2021/04/21 00:03:00.001,n,19,4.32,3.6,4.68,19.5,70.6,1015.52,0,0,0,0,0.033073
2021/04/21 00:04:00.000,n,17,5.04,5.04,5.4,19.4,70.6,1015.42,0,0,0,0,0.02697
2021/04/21 00:05:00.000,n,353,8.28,7.56,8.64,19.4,70.7,1015.42,0,0,0,0,0.027885
2021/04/21 00:06:00.008,n,350,5.76,5.4,6.12,19.4,70.7,1015.42,0,0,0,0,0.031319
2021/04/21 00:07:00.005,n,347,5.04,4.32,5.4,19.4,70.8,1015.42,0,0,0,0,0.028725
2021/04/21 00:08:00.002,n,12,3.6,3.24,3.96,19.4,71,1015.42,0,0,0,0,0.028725
2021/04/21 00:09:00.016,n,16,4.32,3.6,4.68,19.4,70.8,1015.42,0,0,0,0,0.033073
2021/04/21 00:10:00.000,n,0,6.48,5.76,6.84,19.4,70.8,1015.42,0,0,0,0,0.028725
2021/04/21 00:11:00.000,n,350,5.4,4.68,5.76,19.4,70.9,1015.42,0,0,0,0,0.025253
2021/04/21 00:12:00.000,n,355,4.68,4.32,4.68,19.4,71,1015.42,0,0,0,0,0.026093
2021/04/21 00:13:00.004,n,25,5.4,5.04,5.76,19.4,70.9,1015.42,0,0,0,0,0.026093
2021/04/21 00:14:00.002,n,353,4.68,4.32,5.4,19.4,70.9,1015.42,0,0,0,0,0.026093
2021/04/21 00:15:00.000,n,62,1.8,1.08,2.52,19.4,70.9,1015.42,0,0,0,0,0.029602
2021/04/21 00:16:00.000,n,356,4.68,4.32,4.68,19.4,70.9,1015.42,0,0,0,0,0.025253
2021/04/21 00:17:00.009,n,45,2.88,1.8,3.6,19.4,71,1015.52,0,0,0,0,0.022659
2021/04/21 00:18:00.006,n,11,2.88,2.52,3.6,19.4,70.9,1015.52,0,0,0,0,0.021744
2021/04/21 00:19:00.000,n,2,3.24,2.88,3.24,19.3,70.8,1015.52,0,0,0,0,0.026093
2021/04/21 00:20:00.001,n,358,3.6,3.24,3.96,19.3,70.9,1015.52,0,0,0,0,0.02697
2021/04/21 00:21:00.000,n,7,3.24,2.88,3.6,19.3,70.8,1015.52,0,0,0,0,0.025253
2021/04/21 00:22:00.000,n,16,3.24,2.88,3.24,19.3,71.2,1015.52,0,0,0,0,0.024376
2021/04/21 00:23:00.000,n,352,3.24,3.24,3.6,19.3,70.9,1015.52,0,0,0,0,0.022659
2021/04/21 00:24:00.006,n,356,3.6,2.88,3.96,19.3,71.1,1015.42,0,0,0,0,0.025253
2021/04/21 00:25:00.004,n,5,2.52,2.52,2.88,19.3,70.8,1015.42,0,0,0,0,0.01915
2021/04/21 00:26:00.001,n,14,3.96,3.24,4.32,19.3,70.8,1015.42,0,0,0,0,0.026093
2021/04/21 00:27:00.014,n,24,2.88,2.88,3.24,19.3,70.8,1015.42,0,0,0,0,0.022659
2021/04/21 00:28:00.000,n,1,4.32,2.88,4.68,19.3,70.7,1015.42,0,0,0,0,0.026093
2021/04/21 00:29:00.000,n,347,2.88,2.52,3.6,19.3,71.4,1015.32,0,0,0,0,0.023499
2021/04/21 00:30:00.000,n,11,3.6,3.24,3.96,19.3,70.7,1015.32,0,0,0,0,0.022659
2021/04/21 00:31:00.003,n,45,2.88,2.16,3.6,19.3,70.7,1015.32,0,0,0,0,0.020027
2021/04/21 00:32:00.001,n,357,4.32,3.96,4.68,19.3,70.6,1015.32,0,0,0,0,0.028725
2021/04/21 00:33:00.000,n,16,3.6,2.16,4.32,19.3,70.7,1015.22,0,0,0,0,0.034866
2021/04/21 00:34:00.012,n,15,5.04,4.32,5.76,19.3,70.8,1015.22,0,0,0,0,0.033073
2021/04/21 00:35:00.009,n,8,4.68,4.68,5.04,19.3,70.8,1015.22,0,0,0,0,0.034866
2021/04/21 00:36:00.006,n,19,3.24,2.88,3.24,19.3,70.8,1015.22,0,0,0,0,0.032234
2021/04/21 00:37:00.000,n,38,1.8,1.44,2.52,19.3,71,1015.22,0,0,0,0,0.030479
2021/04/21 00:38:00.001,n,25,3.24,2.16,3.96,19.3,71,1015.12,0,0,0,0,0.028725
2021/04/21 00:39:00.000,n,11,1.8,1.44,2.16,19.2,71.3,1015.12,0,0,0,0,0.027885
2021/04/21 00:40:00.000,n,354,4.32,3.96,4.68,19.2,71.7,1015.12,0,0,0,0,0.030479
2021/04/21 00:41:00.000,n,355,5.04,4.32,6.12,19.2,71.3,1015.12,0,0,0,0,0.029602
2021/04/21 00:42:00.007,n,17,5.04,2.88,6.12,19.2,71.2,1015.02,0,0,0,0,0.028725
2021/04/21 00:43:00.005,n,20,4.32,2.88,5.76,19.2,71.2,1015.02,0,0,0,0,0.027885
2021/04/21 00:44:00.001,n,344,3.6,3.24,3.96,19.2,71.4,1015.12,0,0,0,0,0.031357
2021/04/21 00:45:00.015,n,344,3.24,2.52,4.32,19.2,71.4,1015.02,0,0,0,0,0.032234
2021/04/21 00:46:00.000,n,347,2.16,0.36,3.6,19.2,70.8,1015.02,0,0,0,0,0.029602
2021/04/21 00:47:00.000,n,15,6.84,6.48,7.2,19.2,70.5,1015.02,0,0,0,0,0.029602
2021/04/21 00:48:00.000,n,314,3.96,3.24,5.04,19.2,71.2,1015.02,0,0,0,0,0.032234
2021/04/21 00:49:00.005,n,316,3.24,2.88,3.6,19.3,71.2,1015.02,0,0,0,0,0.027885
2021/04/21 00:50:00.002,n,11,3.6,3.24,3.96,19.3,70.7,1015.02,0,0,0,0,0.029602
2021/04/21 00:51:00.000,n,354,5.4,5.04,6.84,19.3,70.5,1015.02,0,0,0,0,0.033073
2021/04/21 00:52:00.012,n,344,5.04,4.68,5.76,19.3,69.9,1015.02,0,0,0,0,0.025253
2021/04/21 00:53:00.009,n,326,2.16,1.44,3.24,19.3,70.2,1015.02,0,0,0,0,0.029602
2021/04/21 00:54:00.006,n,1,3.96,3.6,4.32,19.3,70.3,1015.02,0,0,0,0,0.029602
2021/04/21 00:55:00.000,n,349,7.92,6.84,8.28,19.4,70.2,1015.02,0,0,0,0,0.027008
2021/04/21 00:56:00.001,n,3,5.4,5.04,5.76,19.4,70.2,1015.02,0,0,0,0,0.030479
2021/04/21 00:57:00.000,n,349,6.12,5.4,6.84,19.4,69.8,1015.02,0,0,0,0,0.027885
2021/04/21 00:58:00.000,n,355,4.68,3.96,5.76,19.4,70.1,1015.02,0,0,0,0,0.025253
2021/04/21 00:59:00.000,n,2,6.48,5.4,7.2,19.4,69.8,1015.02,0,0,0,0,0.027008
2021/04/21 01:00:00.006,n,343,4.68,3.6,6.12,19.4,69.7,1015.02,0,0,0,0,0.027885
2021/04/21 01:01:00.003,n,350,3.96,3.6,4.68,19.4,70.8,1014.92,0,0,0,0,0.028725
2021/04/21 01:02:00.000,n,349,4.68,4.32,5.4,19.4,69.9,1014.92,0,0,0,0,0.028725
2021/04/21 01:03:00.014,n,6,4.32,3.96,4.68,19.3,70.1,1014.92,0,0,0,0,0.026131
2021/04/21 01:04:00.000,n,346,5.76,5.4,6.12,19.3,70.6,1014.92,0,0,0,0,0.021782
2021/04/21 01:05:00.000,n,254,1.8,1.08,2.88,19.3,70.8,1014.92,0,0,0,0,0.027885
2021/04/21 01:06:00.005,n,349,2.52,1.8,3.6,19.3,70.8,1014.92,0,0,0,0,0.026131
2021/04/21 01:07:00.002,n,84,0.72,0.36,1.08,19.3,70.6,1014.92,0,0,0,0,0.027008
2021/04/21 01:08:00.000,n,345,2.88,1.8,2.88,19.3,70.7,1014.92,0,0,0,0,0.028725
2021/04/21 01:09:00.000,n,295,1.08,0.36,2.16,19.2,70.8,1014.92,0,0,0,0,0.027885
2021/04/21 01:10:00.010,n,258,2.16,1.08,2.52,19.2,70.6,1014.92,0,0,0,0,0.024376
2021/04/21 01:11:00.008,n,0,7.2,6.48,7.92,19.2,70.2,1014.92,0,0,0,0,0.026131
2021/04/21 01:12:00.005,n,293,1.8,1.44,2.52,19.2,70.3,1014.92,0,0,0,0,0.024376
2021/04/21 01:13:00.000,n,332,2.52,2.52,2.88,19.1,70.4,1014.92,0,0,0,0,0.027008
2021/04/21 01:14:00.000,n,346,6.48,5.04,7.2,19.1,70.5,1014.92,0,0,0,0,0.024376
2021/04/21 01:15:00.000,n,310,1.8,1.44,2.16,19.1,70.1,1014.92,0,0,0,0,0.024376
2021/04/21 01:16:00.000,n,270,3.96,3.6,4.32,19.2,70.3,1014.92,0,0,0,0,0.024376
2021/04/21 01:17:00.007,n,21,2.52,2.52,2.88,19.2,70.1,1014.92,0,0,0,0,0.020943
2021/04/21 01:18:00.005,n,280,1.08,0.36,1.08,19.2,70,1014.92,0,0,0,0,0.020943
2021/04/21 01:19:00.001,n,326,1.8,1.44,2.16,19.2,69.9,1014.92,0,0,0,0,0.022659
2021/04/21 01:20:00.000,n,38,0.72,0.72,0.72,19.2,70.3,1014.92,0,0,0,0,0.025253
2021/04/21 01:21:00.013,n,358,4.32,3.96,5.04,19.2,70.3,1014.92,0,0,0,0,0.022659
2021/04/21 01:22:00.000,n,301,2.88,1.44,3.6,19.2,70.4,1014.92,0,0,0,0,0.023499
2021/04/21 01:23:00.000,n,1,1.44,0.36,1.44,19.2,70.2,1014.92,0,0,0,0,0.021782
2021/04/21 01:24:00.004,n,334,1.44,1.08,1.8,19.2,70.3,1014.92,0,0,0,0,0.021782
2021/04/21 01:25:00.002,n,355,3.96,3.24,4.68,19.2,69.7,1014.92,0,0,0,0,0.020943
2021/04/21 01:26:00.000,n,2,3.96,3.24,4.32,19.2,69.5,1014.92,0,0,0,0,0.023499
2021/04/21 01:27:00.000,n,293,2.16,1.8,2.52,19.2,70.2,1014.92,0,0,0,0,0.01915
2021/04/21 01:28:00.010,n,315,2.88,2.16,3.6,19.2,70,1014.92,0,0,0,0,0.020027
2021/04/21 01:29:00.007,n,241,1.8,1.44,2.16,19.2,69.8,1014.92,0,0,0,0,0.020943
2021/04/21 01:30:00.004,n,253,0.72,0.72,1.08,19.2,69.8,1014.92,0,0,0,0,0.020027
2021/04/21 01:31:00.002,n,274,2.16,1.8,2.88,19.2,70.2,1014.92,0,0,0,0,0.020027
2021/04/21 01:32:00.000,n,252,1.8,1.44,2.16,19.2,70.3,1014.82,0,0,0,0,0.018311
2021/04/21 01:33:00.000,n,267,3.24,2.88,3.6,19.1,70,1014.82,0,0,0,0,0.020027
2021/04/21 01:34:00.000,n,327,1.44,0.72,2.52,19.1,70.6,1014.82,0,0,0,0,0.024376
2021/04/21 01:35:00.005,n,40,7.92,7.56,8.64,19.1,68.8,1014.82,0,0,0,0,0.020027
2021/04/21 01:36:00.002,n,247,3.6,3.24,3.96,19.1,69,1014.82,0,0,0,0,0.018311
2021/04/21 01:37:00.000,n,79,0.72,0.72,1.08,19.2,70.1,1014.82,0,0,0,0,0.018311
2021/04/21 01:38:00.012,n,253,2.52,2.16,2.88,19.2,69.5,1014.82,0,0,0,0,0.013924
2021/04/21 01:39:00.009,n,268,1.8,1.44,2.16,19.2,69.7,1014.82,0,0,0,0,0.023499
2021/04/21 01:40:00.000,n,306,1.8,1.44,2.16,19.1,69.6,1014.82,0,0,0,0,0.028725
2021/04/21 01:41:00.001,n,262,3.24,2.88,3.6,19.1,69.4,1014.82,0,0,0,0,0.027847
2021/04/21 01:42:00.000,n,255,3.96,3.6,4.32,19,69.6,1014.82,0,0,0,0,0.030479
2021/04/21 01:43:00.000,n,120,0.72,0.36,1.08,19,69.8,1014.82,0,0,0,0,0.031357
2021/04/21 01:44:00.008,n,264,4.68,4.32,4.68,19,69.7,1014.82,0,0,0,0,0.028725
2021/04/21 01:45:00.005,n,265,3.96,3.6,3.96,18.9,69.7,1014.82,0,0,0,0,0.028725
2021/04/21 01:46:00.002,n,276,4.32,3.96,5.04,18.9,71.1,1014.82,0,0,0,0,0.027847
2021/04/21 01:47:00.000,n,276,5.4,4.32,5.76,18.9,70.1,1014.82,0,0,0,0,0.025215
2021/04/21 01:48:00.012,n,263,4.32,3.6,5.4,18.9,70,1014.82,0,0,0,0,0.027847
2021/04/21 01:49:00.000,n,277,3.96,3.24,3.96,18.9,70.4,1014.72,0,0,0,0,0.027847
2021/04/21 01:50:00.000,n,279,5.04,4.32,5.76,19,70.9,1014.72,0,0,0,0,0.025215
2021/04/21 01:51:00.003,n,272,4.32,2.88,5.4,18.9,71,1014.72,0,0,0,0,0.022659
2021/04/21 01:52:00.001,n,251,2.52,1.8,3.24,19,72.6,1014.72,0,0,0,0,0.026131
2021/04/21 01:53:00.000,n,278,3.6,2.88,3.96,19,71.9,1014.72,0,0,0,0,0.027008
2021/04/21 01:54:00.010,n,279,1.8,1.44,2.52,19,71,1014.72,0,0,0,0,0.026131
2021/04/21 01:55:00.007,n,351,4.68,3.96,5.76,19,71.4,1014.72,0,0,0,0,0.027847
2021/04/21 01:56:00.004,n,307,2.88,1.8,3.96,19,70.7,1014.72,0,0,0,0,0.022659
2021/04/21 01:57:00.001,n,358,5.76,5.04,6.12,19,70.4,1014.72,0,0,0,0,0.024376
2021/04/21 01:58:00.000,n,1,3.24,2.52,4.32,19,69.8,1014.72,0,0,0,0,0.027008
2021/04/21 01:59:00.000,n,19,2.52,2.16,3.24,19,69.5,1014.72,0,0,0,0,0.021782
2021/04/21 02:00:00.000,n,350,5.76,5.76,6.12,18.9,68.9,1014.72,0,0,0,0,0.024376
2021/04/21 02:01:00.000,n,2,6.12,5.04,6.48,18.9,68.9,1014.72,0,0,0,0,0.020866
2021/04/21 02:02:00.004,n,14,2.88,2.52,3.24,18.9,69.1,1014.72,0,0,0,0,0.022659
2021/04/21 02:03:00.002,n,351,4.68,3.6,5.76,18.9,69.2,1014.72,0,0,0,0,0.026131
2021/04/21 02:04:00.000,n,18,3.6,2.88,3.96,18.9,69.2,1014.72,0,0,0,0,0.022659
2021/04/21 02:05:00.013,n,6,3.6,3.24,4.32,18.9,69.5,1014.62,0,0,0,0,0.023499
2021/04/21 02:06:00.010,n,15,3.96,2.88,4.68,18.9,69.6,1014.62,0,0,0,0,0.025215
2021/04/21 02:07:00.000,n,1,5.04,4.68,5.04,18.9,69.4,1014.62,0,0,0,0,0.025215
2021/04/21 02:08:00.000,n,350,5.76,5.4,6.12,18.9,69.5,1014.62,0,0,0,0,0.021782
2021/04/21 02:09:00.000,n,7,3.96,3.96,4.32,18.9,69.5,1014.62,0,0,0,0,0.023499
2021/04/21 02:10:00.000,n,6,3.6,2.88,4.32,18.9,69.5,1014.62,0,0,0,0,0.025215
2021/04/21 02:11:00.000,n,7,2.16,1.08,3.24,18.9,69.4,1014.62,0,0,0,0,0.021782
2021/04/21 02:12:00.009,n,7,5.04,4.68,5.04,18.9,69.5,1014.62,0,0,0,0,0.020866
2021/04/21 02:13:00.006,n,356,4.68,4.32,4.68,18.9,69.6,1014.62,0,0,0,0,0.024376
2021/04/21 02:14:00.003,n,10,1.8,0.72,2.52,18.9,69.8,1014.62,0,0,0,0,0.022659
2021/04/21 02:15:00.000,n,238,0.72,0,1.44,18.9,69.6,1014.62,0,0,0,0,0.022659
2021/04/21 02:16:00.000,n,199,0.72,0.36,0.72,18.8,69.8,1014.62,0,0,0,0,0.018272
2021/04/21 02:17:00.000,n,201,2.88,2.52,3.24,18.8,69.9,1014.62,0,0,0,0,0.027008
2021/04/21 02:18:00.000,n,212,3.24,2.88,3.6,18.8,70,1014.62,0,0,0,0,0.027008
2021/04/21 02:19:00.006,n,262,1.8,1.08,2.52,18.7,70.1,1014.62,0,0,0,0,0.024376
2021/04/21 02:20:00.004,n,235,2.52,2.16,2.88,18.7,70.1,1014.62,0,0,0,0,0.026131
2021/04/21 02:21:00.000,n,255,2.88,2.88,3.24,18.6,70.2,1014.62,0,0,0,0,0.023499
2021/04/21 02:22:00.000,n,259,2.16,1.8,2.88,18.6,70.4,1014.62,0,0,0,0,0.022659
2021/04/21 02:23:00.012,n,257,4.68,4.32,4.68,18.6,70.7,1014.62,0,0,0,0,0.021782
2021/04/21 02:24:00.009,n,284,3.6,3.6,3.96,18.6,71.2,1014.62,0,0,0,0,0.01915
2021/04/21 02:25:00.000,n,234,2.16,1.8,2.52,18.5,71.3,1014.52,0,0,0,0,0.021782
2021/04/21 02:26:00.003,n,226,1.8,1.8,1.8,18.5,71.6,1014.52,0,0,0,0,0.018272
2021/04/21 02:27:00.000,n,263,2.16,2.16,2.52,18.5,71.8,1014.52,0,0,0,0,0.01915
2021/04/21 02:28:00.000,n,192,5.04,4.32,5.4,18.4,72.2,1014.52,0,0,0,0,0.016556
2021/04/21 02:29:00.000,n,222,2.52,2.16,2.88,18.4,72.8,1014.42,0,0,0,0,0.020866
2021/04/21 02:30:00.008,n,194,2.88,2.52,3.24,18.4,73.2,1014.42,0,0,0,0,0.025215
2021/04/21 02:31:00.005,n,206,2.88,2.16,3.6,18.4,73.6,1014.42,0,0,0,0,0.017433
2021/04/21 02:32:00.002,n,187,4.32,3.24,5.04,18.4,74.2,1014.42,0,0,0,0,0.016556
2021/04/21 02:33:00.015,n,213,2.16,1.44,2.88,18.3,74.3,1014.42,0,0,0,0,0.015678
2021/04/21 02:34:00.000,n,213,2.52,2.16,2.88,18.3,74.4,1014.42,0,0,0,0,0.017433
2021/04/21 02:35:00.000,n,205,3.24,2.16,3.96,18.3,75.2,1014.42,0,0,0,0,0.020866
2021/04/21 02:36:00.000,n,171,3.96,2.88,4.32,18.3,75.6,1014.42,0,0,0,0,0.016556
2021/04/21 02:37:00.000,n,154,2.52,1.08,3.24,18.2,75.9,1014.42,0,0,0,0,0.014801
2021/04/21 02:38:00.006,n,169,2.52,2.52,2.88,18.2,76.1,1014.42,0,0,0,0,0.014801
2021/04/21 02:39:00.003,n,211,1.8,1.44,2.16,18.1,76.2,1014.32,0,0,0,0,0.016556
2021/04/21 02:40:00.000,n,262,1.08,0.72,1.08,18.1,76.3,1014.32,0,0,0,0,0.013084
2021/04/21 02:41:00.013,n,196,1.08,1.08,1.44,18.1,76.4,1014.32,0,0,0,0,0.013084
2021/04/21 02:42:00.010,n,180,1.8,0.36,2.52,18,76.6,1014.32,0,0,0,0,0.024376
2021/04/21 02:43:00.000,n,24,0.72,0.36,1.44,18,76.8,1014.32,0,0,0,0,0.021782
2021/04/21 02:44:00.001,n,132,2.16,2.16,2.52,18,76.8,1014.32,0,0,0,0,0.026131
2021/04/21 02:45:00.000,n,85,0.72,0.36,0.72,18,76.8,1014.32,0,0,0,0,0.025215
2021/04/21 02:46:00.000,n,221,0,0,0.36,18,76.8,1014.32,0,0,0,0,0.028725
2021/04/21 02:47:00.007,n,49,1.8,1.08,2.16,17.9,76.9,1014.32,0,0,0,0,0.028725
2021/04/21 02:48:00.005,n,82,1.8,1.8,1.8,17.9,76.8,1014.32,0,0,0,0,0.025215
2021/04/21 02:49:00.002,n,18,1.08,0.36,1.8,17.9,76.8,1014.32,0,0,0,0,0.025215
2021/04/21 02:50:00.000,n,83,1.8,1.8,2.16,17.8,77,1014.22,0,0,0,0,0.022621
2021/04/21 02:51:00.012,n,140,1.08,1.08,1.44,17.8,77.1,1014.22,0,0,0,0,0.024376
2021/04/21 02:52:00.000,n,215,1.44,0.72,1.8,17.8,77.2,1014.32,0,0,0,0,0.029602
2021/04/21 02:53:00.000,n,159,1.8,1.44,2.16,17.8,77.5,1014.32,0,0,0,0,0.033073
2021/04/21 02:54:00.004,n,177,3.24,2.52,3.6,17.8,77.6,1014.32,0,0,0,0,0.032196
2021/04/21 02:55:00.001,n,196,2.52,2.52,2.88,17.8,77.7,1014.22,0,0,0,0,0.030479
2021/04/21 02:56:00.000,n,209,2.52,2.16,2.88,17.8,77.7,1014.22,0,0,0,0,0.030479
2021/04/21 02:57:00.000,n,241,1.08,0.72,1.44,17.8,77.8,1014.22,0,0,0,0,0.02697
2021/04/21 02:58:00.008,n,299,1.08,0.72,1.8,17.8,78,1014.22,0,0,0,0,0.02697
2021/04/21 02:59:00.005,n,14,0.36,0,0.72,17.8,78.1,1014.22,0,0,0,0,0.025253
2021/04/21 03:00:00.002,n,41,0.72,0.36,1.08,17.8,78.1,1014.22,0,0,0,0,0.023499
2021/04/21 03:01:00.000,n,200,0.72,0.36,0.72,17.7,78,1014.22,0,0,0,0,0.02697
2021/04/21 03:02:00.000,n,125,2.16,1.44,2.52,17.7,78.2,1014.32,0,0,0,0,0.027847
2021/04/21 03:03:00.000,n,205,2.16,1.44,2.52,17.7,78.2,1014.32,0,0,0,0,0.026093
2021/04/21 03:04:00.000,n,138,0.36,0,0.72,17.7,78.2,1014.32,0,0,0,0,0.022621
2021/04/21 03:05:00.005,n,57,2.16,0.72,4.68,17.7,78.5,1014.32,0,0,0,0,0.027847
2021/04/21 03:06:00.002,n,126,1.44,1.08,1.8,17.7,78.5,1014.32,0,0,0,0,0.023499
2021/04/21 03:07:00.000,n,218,1.8,1.44,2.16,17.7,78.4,1014.32,0,0,0,0,0.026093
2021/04/21 03:08:00.013,n,321,0.72,0.36,1.44,17.6,78.5,1014.42,0,0,0,0,0.024376
2021/04/21 03:09:00.010,n,260,0.72,0.36,0.72,17.6,78.5,1014.42,0,0,0,0,0.024376
2021/04/21 03:10:00.000,n,59,1.44,1.08,1.8,17.6,78.4,1014.42,0,0,0,0,0.02697
2021/04/21 03:11:00.000,n,39,1.44,1.08,2.52,17.6,78.5,1014.42,0,0,0,0,0.022621
2021/04/21 03:12:00.001,n,193,0.72,0.36,1.8,17.6,78.5,1014.42,0,0,0,0,0.022621
2021/04/21 03:13:00.000,n,15,0.72,0.72,0.72,17.6,78.4,1014.42,0,0,0,0,0.020905
2021/04/21 03:14:00.000,n,233,0.72,0.36,1.08,17.6,78.4,1014.42,0,0,0,0,0.021744
2021/04/21 03:15:00.010,n,50,1.44,0.36,2.16,17.6,78.6,1014.42,0,0,0,0,0.020905
2021/04/21 03:16:00.006,n,108,1.08,0.36,1.44,17.5,78.5,1014.42,0,0,0,0,0.023499
2021/04/21 03:17:00.003,n,40,1.08,0.72,1.44,17.5,78.5,1014.52,0,0,0,0,0.021744
2021/04/21 03:18:00.001,n,213,1.44,1.08,1.8,17.5,78.6,1014.52,0,0,0,0,0.020905
2021/04/21 03:19:00.000,n,289,2.16,1.08,2.88,17.5,78.9,1014.52,0,0,0,0,0.020905
2021/04/21 03:20:00.000,n,200,1.44,1.44,1.8,17.5,79,1014.52,0,0,0,0,0.018272
2021/04/21 03:21:00.000,n,169,1.44,1.08,1.8,17.5,79.1,1014.52,0,0,0,0,0.023499
2021/04/21 03:22:00.005,n,250,2.88,2.52,3.24,17.5,79,1014.52,0,0,0,0,0.020905
2021/04/21 03:23:00.003,n,237,2.16,1.44,2.52,17.4,79.1,1014.52,0,0,0,0,0.028763
2021/04/21 03:24:00.000,n,261,3.6,3.6,3.96,17.4,79.2,1014.52,0,0,0,0,0.026131
2021/04/21 03:25:00.000,n,266,2.16,1.8,2.52,17.4,79.4,1014.52,0,0,0,0,0.024414
2021/04/21 03:26:00.011,n,257,2.88,2.52,3.24,17.4,79.4,1014.52,0,0,0,0,0.027885
2021/04/21 03:27:00.008,n,258,2.88,2.52,3.24,17.4,79.5,1014.52,0,0,0,0,0.024414
2021/04/21 03:28:00.000,n,165,1.8,1.44,2.16,17.4,79.5,1014.52,0,0,0,0,0.025291
2021/04/21 03:29:00.002,n,148,1.44,0.72,2.16,17.3,79.7,1014.52,0,0,0,0,0.027008
2021/04/21 03:30:00.000,n,171,1.08,0.72,1.44,17.3,79.8,1014.52,0,0,0,0,0.028763
2021/04/21 03:31:00.000,n,181,2.16,1.44,2.52,17.3,79.9,1014.52,0,0,0,0,0.024414
2021/04/21 03:32:00.000,n,175,1.08,1.08,1.08,17.3,80,1014.52,0,0,0,0,0.025291
2021/04/21 03:33:00.008,n,110,1.08,0.72,1.08,17.3,80.1,1014.52,0,0,0,0,0.020905
2021/04/21 03:34:00.005,n,155,1.44,1.08,1.44,17.3,80.1,1014.52,0,0,0,0,0.023499
2021/04/21 03:35:00.002,n,162,1.08,1.08,1.44,17.2,80.2,1014.52,0,0,0,0,0.024414
2021/04/21 03:36:00.000,n,210,0.36,0.36,0.36,17.2,80.2,1014.52,0,0,0,0,0.025291
2021/04/21 03:37:00.000,n,132,2.52,2.16,2.52,17.2,80.4,1014.42,0,0,0,0,0.020905
2021/04/21 03:38:00.000,n,96,1.8,1.08,1.8,17.2,80.4,1014.42,0,0,0,0,0.027008
2021/04/21 03:39:00.000,n,133,1.44,1.08,1.8,17.2,80.3,1014.42,0,0,0,0,0.021782
2021/04/21 03:40:00.005,n,113,1.8,1.44,1.8,17.2,80.4,1014.42,0,0,0,0,0.022659
2021/04/21 03:41:00.002,n,140,3.24,2.52,3.96,17.1,80.6,1014.42,0,0,0,0,0.024414
2021/04/21 03:42:00.000,n,148,2.88,2.88,3.24,17.1,80.8,1014.42,0,0,0,0,0.021782
2021/04/21 03:43:00.000,n,162,2.52,2.16,2.88,17.1,80.8,1014.42,0,0,0,0,0.023499
2021/04/21 03:44:00.011,n,158,3.24,2.88,3.24,17.1,80.8,1014.42,0,0,0,0,0.01915
2021/04/21 03:45:00.009,n,156,2.88,2.52,3.24,17.1,80.7,1014.42,0,0,0,0,0.021782
2021/04/21 03:46:00.000,n,162,2.52,2.16,2.52,17.1,80.6,1014.32,0,0,0,0,0.01915
2021/04/21 03:47:00.002,n,114,1.44,1.08,1.8,17.1,80.5,1014.32,0,0,0,0,0.018311
2021/04/21 03:48:00.000,n,102,1.08,1.08,1.44,17.1,80.6,1014.32,0,0,0,0,0.016556
2021/04/21 03:49:00.000,n,109,0.36,0.36,0.72,17.1,80.6,1014.32,0,0,0,0,0.016556
2021/04/21 03:50:00.000,n,247,2.52,2.52,2.88,17.1,80.6,1014.32,0,0,0,0,0.020065
2021/04/21 03:51:00.007,n,228,1.8,1.8,1.8,17,80.7,1014.32,0,0,0,0,0.017433
2021/04/21 03:52:00.004,n,198,1.08,0.72,1.08,17,80.8,1014.32,0,0,0,0,0.01915
2021/04/21 03:53:00.001,n,167,1.44,1.44,1.44,17,80.9,1014.32,0,0,0,0,0.015717
2021/04/21 03:54:00.000,n,133,1.44,1.08,1.44,17,81,1014.32,0,0,0,0,0.015717
2021/04/21 03:55:00.000,n,131,2.88,2.52,2.88,17,81,1014.32,0,0,0,0,0.009575
2021/04/21 03:56:00.000,n,142,3.96,3.6,4.68,17,81.1,1014.32,0,0,0,0,0.014801
2021/04/21 03:57:00.000,n,167,2.16,1.08,2.88,17,81.2,1014.32,0,0,0,0,0.013924
2021/04/21 03:58:00.004,n,211,3.6,3.6,3.96,17,81.1,1014.32,0,0,0,0,0.022621
2021/04/21 03:59:00.000,n,166,2.16,1.8,2.52,17,81,1014.42,0,0,0,0,0.026131
2021/04/21 04:00:00.000,n,91,1.8,1.08,2.16,17,81,1014.32,0,0,0,0,0.028763
2021/04/21 04:01:00.008,n,43,2.88,2.16,3.24,17,81.2,1014.22,0,0,0,0,0.028763
2021/04/21 04:02:00.005,n,39,2.88,2.16,3.24,17,81.2,1014.22,0,0,0,0,0.026131
2021/04/21 04:03:00.003,n,16,1.8,0.36,2.88,17,81.2,1014.22,0,0,0,0,0.027008
2021/04/21 04:04:00.001,n,234,2.16,1.8,2.16,16.9,81.2,1014.22,0,0,0,0,0.026131
2021/04/21 04:05:00.000,n,158,0.72,0.36,0.72,16.9,81.2,1014.32,0,0,0,0,0.027008
2021/04/21 04:06:00.000,n,46,1.8,1.44,2.16,16.9,81.6,1014.22,0,0,0,0,0.028763
2021/04/21 04:07:00.000,n,47,1.08,1.08,1.08,16.9,81.7,1014.32,0,0,0,0,0.023537
2021/04/21 04:08:00.007,n,347,1.8,1.44,2.16,16.9,81.7,1014.32,0,0,0,0,0.026131
2021/04/21 04:09:00.004,n,229,1.44,1.08,2.16,16.9,81.6,1014.32,0,0,0,0,0.023537
2021/04/21 04:10:00.001,n,149,2.16,1.8,2.16,16.9,81.7,1014.32,0,0,0,0,0.026131
2021/04/21 04:11:00.014,n,144,2.52,2.52,2.52,16.9,81.8,1014.32,0,0,0,0,0.022621
2021/04/21 04:12:00.012,n,155,1.8,1.44,2.16,16.9,81.8,1014.32,0,0,0,0,0.020905
2021/04/21 04:13:00.000,n,140,3.6,3.6,3.6,16.9,81.9,1014.32,0,0,0,0,0.025253
2021/04/21 04:14:00.000,n,136,2.88,2.52,2.88,16.9,82,1014.32,0,0,0,0,0.023537
2021/04/21 04:15:00.003,n,55,1.44,1.44,1.8,16.9,82,1014.32,0,0,0,0,0.020027
2021/04/21 04:16:00.001,n,81,1.08,0.36,1.44,16.9,81.9,1014.32,0,0,0,0,0.023537
2021/04/21 04:17:00.000,n,51,1.8,1.44,1.8,16.9,81.9,1014.22,0,0,0,0,0.023537
2021/04/21 04:18:00.000,n,48,1.08,0.36,1.8,16.9,82,1014.22,0,0,0,0,0.019188
2021/04/21 04:19:00.010,n,208,1.08,0.72,1.08,16.9,81.9,1014.22,0,0,0,0,0.020905
2021/04/21 04:20:00.006,n,210,1.8,1.44,1.8,16.8,81.9,1014.22,0,0,0,0,0.022621
2021/04/21 04:21:00.004,n,67,0.72,0.36,0.72,16.8,81.8,1014.22,0,0,0,0,0.032196
2021/04/21 04:22:00.000,n,91,0.36,0,0.72,16.8,82.1,1014.22,0,0,0,0,0.027847
2021/04/21 04:23:00.000,n,196,0.36,0.36,0.36,16.8,82.2,1014.22,0,0,0,0,0.036583
2021/04/21 04:24:00.000,n,239,1.08,0.72,1.8,16.8,82.1,1014.22,0,0,0,0,0.032196
2021/04/21 04:25:00.000,n,241,1.8,1.8,2.16,16.8,82,1014.22,0,0,0,0,0.034828
2021/04/21 04:26:00.005,n,103,0.72,0.36,1.08,16.8,82.1,1014.22,0,0,0,0,0.033951
2021/04/21 04:27:00.002,n,350,0.72,0.36,0.72,16.8,82.2,1014.32,0,0,0,0,0.037422
2021/04/21 04:28:00.000,n,256,5.04,4.68,5.4,16.700002,82,1014.32,0,0,0,0,0.035706
2021/04/21 04:29:00.013,n,264,4.32,3.96,4.32,16.700002,82,1014.32,0,0,0,0,0.036583
2021/04/21 04:30:00.010,n,241,3.24,2.88,3.6,16.700002,82.1,1014.32,0,0,0,0,0.037422
2021/04/21 04:31:00.000,n,243,3.24,2.88,3.24,16.700002,82.1,1014.32,0,0,0,0,0.037422
2021/04/21 04:32:00.000,n,256,2.88,2.52,3.24,16.700002,82.1,1014.32,0,0,0,0,0.031357
2021/04/21 04:33:00.000,n,261,2.16,2.16,2.88,16.700002,82.2,1014.32,0,0,0,0,0.033951
2021/04/21 04:34:00.000,n,35,1.08,1.08,1.44,16.700002,82.3,1014.32,0,0,0,0,0.033073
2021/04/21 04:35:00.000,n,114,0.36,0,0.36,16.700002,82.4,1014.32,0,0,0,0,0.031357
2021/04/21 04:36:00.008,n,97,0.72,0.36,0.72,16.700002,82.3,1014.32,0,0,0,0,0.033073
2021/04/21 04:37:00.005,n,39,1.8,1.8,2.16,16.700002,82.4,1014.32,0,0,0,0,0.032196
2021/04/21 04:38:00.002,n,352,1.44,1.08,1.44,16.700002,82.4,1014.42,0,0,0,0,0.027008
2021/04/21 04:39:00.016,n,213,1.8,1.44,2.16,16.700002,82.3,1014.42,0,0,0,0,0.028725
2021/04/21 04:40:00.000,n,242,2.16,2.16,2.16,16.700002,82.2,1014.42,0,0,0,0,0.033073
2021/04/21 04:41:00.000,n,254,3.24,2.88,3.24,16.6,82.2,1014.42,0,0,0,0,0.031357
2021/04/21 04:42:00.000,n,250,3.6,3.24,3.6,16.6,82.3,1014.42,0,0,0,0,0.029602
2021/04/21 04:43:00.005,n,217,2.52,2.16,2.88,16.6,82.4,1014.42,0,0,0,0,0.028725
2021/04/21 04:44:00.002,n,252,3.6,3.6,3.6,16.6,82.4,1014.42,0,0,0,0,0.029602
2021/04/21 04:45:00.000,n,256,3.96,3.6,3.96,16.6,82.3,1014.52,0,0,0,0,0.029602
2021/04/21 04:46:00.011,n,244,1.44,1.08,1.44,16.6,82.3,1014.42,0,0,0,0,0.029602
2021/04/21 04:47:00.009,n,105,0.72,0.36,0.72,16.6,82.3,1014.42,0,0,0,0,0.024376
2021/04/21 04:48:00.006,n,260,1.8,1.8,1.8,16.6,82.3,1014.52,0,0,0,0,0.027847
2021/04/21 04:49:00.000,n,260,2.52,2.52,3.24,16.6,82.4,1014.52,0,0,0,0,0.029602
2021/04/21 04:50:00.000,n,238,2.16,1.8,2.52,16.6,82.4,1014.52,0,0,0,0,0.028725
2021/04/21 04:51:00.000,n,234,1.8,1.8,2.16,16.6,82.4,1014.52,0,0,0,0,0.025215
2021/04/21 04:52:00.000,n,248,3.24,2.88,3.24,16.6,82.3,1014.52,0,0,0,0,0.027847
2021/04/21 04:53:00.008,n,251,2.52,2.52,2.52,16.6,82.3,1014.52,0,0,0,0,0.028725
2021/04/21 04:54:00.006,n,228,0.72,0.72,0.72,16.6,82.3,1014.52,0,0,0,0,0.029602
2021/04/21 04:55:00.003,n,199,1.8,1.44,2.16,16.6,82.4,1014.52,0,0,0,0,0.028725
2021/04/21 04:56:00.000,n,238,3.24,3.24,3.24,16.6,82.3,1014.52,0,0,0,0,0.027847